EN

Hourly Weather Rakshivka

Today, 18 April, Sunday

Time Temperature Precipitation Wind Pressure Humidity
00:00 +9°C° 0 mm 1 mps 756 mmHg 69%
01:00 +9°C° 0 mm 1 mps 756 mmHg 71%
02:00 +8°C° 0 mm 1 mps 755 mmHg 75%
03:00 +8°C° 0 mm 1 mps 755 mmHg 77%
04:00 +8°C° 0 mm 1 mps 755 mmHg 79%
05:00 +7°C° 0 mm 1 mps 755 mmHg 81%
06:00 +8°C° 0 mm 1 mps 755 mmHg 75%
07:00 +10°C° 0 mm 1 mps 755 mmHg 69%
08:00 +11°C° 0 mm 1 mps 755 mmHg 63%
09:00 +12°C° 0 mm 2 mps 755 mmHg 57%
10:00 +14°C° 0 mm 2 mps 755 mmHg 52%
11:00 +14°C° 0 mm 3 mps 754 mmHg 46%
12:00 +14°C° 0 mm 3 mps 754 mmHg 44%
13:00 +16°C° 0 mm 3 mps 754 mmHg 42%
14:00 +16°C° 0 mm 3 mps 754 mmHg 40%
15:00 +14°C° 0 mm 3 mps 754 mmHg 44%
16:00 +14°C° 0 mm 3 mps 754 mmHg 47%
17:00 +13°C° 0 mm 3 mps 754 mmHg 51%
18:00 +12°C° 0 mm 3 mps 754 mmHg 55%
19:00 +12°C° 0 mm 2 mps 754 mmHg 60%
20:00 +10°C° 0 mm 2 mps 754 mmHg 64%
21:00 +10°C° 0 mm 2 mps 754 mmHg 66%
22:00 +9°C° 0 mm 2 mps 754 mmHg 68%
23:00 +9°C° 0 mm 2 mps 754 mmHg 69%

Tomorrow, 19 April, Monday

Time Temperature Precipitation Wind Pressure Humidity
00:00 +8°C° 0 mm 2 mps 754 mmHg 74%
01:00 +7°C° 0 mm 2 mps 754 mmHg 78%
02:00 +7°C° 0 mm 2 mps 754 mmHg 82%
03:00 +7°C° 0 mm 2 mps 754 mmHg 83%
04:00 +7°C° 0 mm 2 mps 754 mmHg 84%
05:00 +6°C° 0 mm 2 mps 754 mmHg 85%
06:00 +7°C° 0 mm 2 mps 754 mmHg 79%
07:00 +8°C° 0 mm 2 mps 754 mmHg 74%
08:00 +10°C° 0 mm 2 mps 754 mmHg 69%
09:00 +12°C° 0 mm 2 mps 754 mmHg 63%
10:00 +13°C° 0 mm 2 mps 753 mmHg 58%
11:00 +14°C° 0 mm 2 mps 753 mmHg 53%
12:00 +15°C° 0 mm 2 mps 753 mmHg 50%
13:00 +15°C° 0 mm 2 mps 753 mmHg 48%
14:00 +16°C° 0 mm 2 mps 753 mmHg 45%
15:00 +16°C° 0 mm 2 mps 752 mmHg 46%
16:00 +15°C° 0 mm 2 mps 752 mmHg 47%
17:00 +15°C° 0 mm 2 mps 752 mmHg 48%
18:00 +14°C° 0 mm 2 mps 752 mmHg 50%
19:00 +13°C° 0 mm 2 mps 752 mmHg 53%
20:00 +12°C° 0 mm 2 mps 752 mmHg 56%
21:00 +12°C° 0 mm 2 mps 751 mmHg 58%
22:00 +11°C° 0 mm 3 mps 751 mmHg 60%
23:00 +10°C° 0 mm 3 mps 750 mmHg 61%

Day after tomorrow, 20 April, Tuesday

Time Temperature Precipitation Wind Pressure Humidity
00:00 +10°C° 0 mm 3 mps 749 mmHg 63%
01:00 +10°C° 0 mm 3 mps 749 mmHg 66%
02:00 +10°C° 0 mm 4 mps 748 mmHg 68%
03:00 +10°C° 0.1 mm 4 mps 748 mmHg 71%
04:00 +10°C° 0.1 mm 4 mps 747 mmHg 73%
05:00 +8°C° 0.1 mm 4 mps 746 mmHg 76%
06:00 +8°C° 1.2 mm 5 mps 746 mmHg 80%
07:00 +8°C° 1.2 mm 6 mps 745 mmHg 85%
08:00 +8°C° 1.2 mm 7 mps 744 mmHg 89%
09:00 +8°C° 1.4 mm 7 mps 743 mmHg 91%
10:00 +8°C° 1.4 mm 6 mps 742 mmHg 92%
11:00 +8°C° 1.4 mm 6 mps 741 mmHg 93%
12:00 +9°C° 2.1 mm 6 mps 740 mmHg 91%
13:00 +10°C° 2.1 mm 5 mps 740 mmHg 89%
14:00 +12°C° 2.1 mm 5 mps 739 mmHg 88%
15:00 +10°C° 0.2 mm 5 mps 739 mmHg 87%
16:00 +10°C° 0.2 mm 5 mps 739 mmHg 86%
17:00 +10°C° 0.2 mm 5 mps 739 mmHg 85%
18:00 +9°C° 0.1 mm 5 mps 739 mmHg 87%
19:00 +10°C° 0.1 mm 4 mps 740 mmHg 89%
20:00 +8°C° 0.1 mm 4 mps 740 mmHg 91%
21:00 +8°C° 0.4 mm 5 mps 741 mmHg 90%
22:00 +7°C° 0.4 mm 6 mps 742 mmHg 90%
23:00 +6°C° 0.4 mm 7 mps 743 mmHg 90%

21 April, Wednesday

Time Temperature Precipitation Wind Pressure Humidity
00:00 +6°C° 0.1 mm 7 mps 744 mmHg 89%
01:00 +5°C° 0.1 mm 7 mps 745 mmHg 87%
02:00 +5°C° 0.1 mm 7 mps 747 mmHg 86%
03:00 +4°C° 0 mm 6 mps 748 mmHg 86%
04:00 +4°C° 0 mm 6 mps 749 mmHg 87%
05:00 +3°C° 0 mm 5 mps 750 mmHg 87%
06:00 +3°C° 0 mm 5 mps 750 mmHg 82%
07:00 +5°C° 0 mm 5 mps 751 mmHg 77%
08:00 +6°C° 0 mm 5 mps 752 mmHg 72%
09:00 +7°C° 0 mm 5 mps 752 mmHg 67%
10:00 +8°C° 0 mm 5 mps 752 mmHg 62%
11:00 +9°C° 0 mm 5 mps 753 mmHg 57%
12:00 +10°C° 0 mm 5 mps 753 mmHg 54%
13:00 +10°C° 0 mm 5 mps 753 mmHg 51%
14:00 +11°C° 0 mm 6 mps 754 mmHg 48%
15:00 +12°C° 0 mm 5 mps 754 mmHg 50%
16:00 +12°C° 0 mm 4 mps 754 mmHg 53%
17:00 +12°C° 0 mm 3 mps 755 mmHg 55%
18:00 +12°C° 0 mm 2 mps 755 mmHg 57%
19:00 +10°C° 0 mm 2 mps 755 mmHg 60%
20:00 +10°C° 0 mm 1 mps 756 mmHg 62%
21:00 +9°C° 0 mm 2 mps 756 mmHg 64%
22:00 +9°C° 0 mm 2 mps 756 mmHg 67%
23:00 +9°C° 0 mm 2 mps 756 mmHg 69%

22 April, Thursday

Time Temperature Precipitation Wind Pressure Humidity
00:00 +9°C° 0 mm 2 mps 756 mmHg 72%
01:00 +9°C° 0 mm 2 mps 757 mmHg 74%
02:00 +9°C° 0 mm 2 mps 757 mmHg 77%
03:00 +8°C° 0 mm 2 mps 757 mmHg 80%
04:00 +8°C° 0 mm 2 mps 757 mmHg 82%
05:00 +8°C° 0 mm 3 mps 757 mmHg 84%
06:00 +9°C° 0 mm 3 mps 757 mmHg 78%
07:00 +11°C° 0 mm 3 mps 758 mmHg 72%
08:00 +12°C° 0 mm 3 mps 758 mmHg 66%
09:00 +13°C° 0.2 mm 4 mps 758 mmHg 62%
10:00 +14°C° 0.2 mm 4 mps 758 mmHg 58%
11:00 +15°C° 0.2 mm 4 mps 758 mmHg 53%
12:00 +15°C° 0.2 mm 4 mps 758 mmHg 51%
13:00 +17°C° 0.2 mm 4 mps 758 mmHg 48%
14:00 +17°C° 0.2 mm 3 mps 757 mmHg 45%
15:00 +16°C° 0.2 mm 3 mps 757 mmHg 50%
16:00 +16°C° 0.2 mm 3 mps 758 mmHg 55%
17:00 +14°C° 0.2 mm 4 mps 758 mmHg 59%
18:00 +13°C° 0.1 mm 3 mps 758 mmHg 64%
19:00 +12°C° 0.1 mm 3 mps 758 mmHg 69%
20:00 +11°C° 0.1 mm 3 mps 758 mmHg 75%
21:00 +10°C° 0 mm 3 mps 758 mmHg 77%
22:00 +10°C° 0 mm 3 mps 758 mmHg 79%
23:00 +9°C° 0 mm 3 mps 758 mmHg 81%

23 April, Friday

Time Temperature Precipitation Wind Pressure Humidity
00:00 +9°C° 0 mm 3 mps 758 mmHg 83%
01:00 +9°C° 0 mm 2 mps 758 mmHg 85%
02:00 +8°C° 0 mm 2 mps 758 mmHg 87%
03:00 +8°C° 0 mm 2 mps 758 mmHg 88%
04:00 +8°C° 0 mm 2 mps 758 mmHg 89%
05:00 +7°C° 0 mm 2 mps 758 mmHg 90%
06:00 +9°C° 0 mm 2 mps 758 mmHg 82%
07:00 +11°C° 0 mm 3 mps 758 mmHg 75%
08:00 +12°C° 0 mm 3 mps 759 mmHg 67%
09:00 +14°C° 0 mm 3 mps 758 mmHg 61%
10:00 +16°C° 0 mm 3 mps 758 mmHg 56%
11:00 +17°C° 0 mm 4 mps 758 mmHg 50%
12:00 +17°C° 0 mm 4 mps 758 mmHg 48%
13:00 +18°C° 0 mm 4 mps 757 mmHg 45%
14:00 +18°C° 0 mm 4 mps 757 mmHg 43%
15:00 +18°C° 0 mm 3 mps 757 mmHg 44%
16:00 +18°C° 0 mm 3 mps 757 mmHg 46%
17:00 +17°C° 0 mm 3 mps 757 mmHg 47%
18:00 +16°C° 0 mm 3 mps 757 mmHg 50%
19:00 +14°C° 0 mm 3 mps 757 mmHg 53%
20:00 +13°C° 0 mm 3 mps 757 mmHg 57%
21:00 +12°C° 0 mm 3 mps 757 mmHg 62%
22:00 +11°C° 0 mm 3 mps 757 mmHg 66%
23:00 +10°C° 0 mm 3 mps 757 mmHg 71%
Show more

We Need Your Consent

Meteoprog and our Service Providers may store and access personal data such as cookies, device identifiers or other similar technologies on your device and process such data to personalise content and ads, as well as provide social media features and to analyse the traffic.

  • Store and/or access information on your device

    Cookies, device identifiers or other information can be stored or accessed on your device for the purposes indicated above.

  • Personalised ads and content, ad and content measurement, audience insights, and products development

    Ads and content can be personalised based on a profile. More data can be added to better personalise ads and content. Ad and content performance can be measured. Insights about the audience who saw the ads and content can be derived. Such data can be used to develop or improve user’s experience, systems and software.

By clicking ‘I Agree’ you will allow the use of indicated cookies, device identifiers, web beacons or other similar technologies. Your settings can be changed in the browser on your device.

For certain purposes, legitimate interests may be relied on, rather than consent. You can read more about this in our Privacy and Cookie Policy.